Regional Weather Roundup
Issued by NWS Wakefield, VA

Home | Current Version | Previous Version | Graphics & Text | Print | Product List | Glossary On
Versions: 1 2 3 4 5 6 7 8 9 10 11 12 13 14 15 16 17 18 19 20 21 22 23 24 25 26 27
000
ASUS41 KAKQ 082115
RWRAKQ

REGIONAL WEATHER ROUNDUP
NATIONAL WEATHER SERVICE WAKEFIELD VA
400 PM EST THU DEC 08 2016

Note: "fair" indicates few or no clouds below 12,000 feet with no
significant weather and/or obstructions to visibility. * = Denotes
station may not report precipitation (e.g., rain,snow,etc.),
thunder or fog.

VAZ042-051-052>054-056-082200-
NORTHERN VIRGINIA

CITY           SKY/WX    TMP DP  RH WIND       PRES   REMARKS
WASH NATIONAL  MOCLDY    48  17  29 NW14G23   30.04R
DULLES         MOCLDY    44  16  32 NW17G28   30.04R
FORT BELVOIR   CLOUDY    47  16  28 NW15      30.03R
QUANTICO       CLOUDY    47  22  37 NW9       30.06R
FREDERICKSBRG* CLOUDY    46  25  43 W9        30.04R
STAFFORD*      CLOUDY    44  25  46 W5        30.08R
WARRENTON      CLOUDY    46   8  20 NW8G16    30.04R
CULPEPER*      PTCLDY    47  17  30 CALM      30.06R
MANASSAS*      CLEAR    N/A N/A N/A NW14G25   30.05R
LEESBURG*      CLEAR     45  21  39 NW20G28   30.05R
WINCHESTER     CLEAR     37  16  41 NW18G26   30.05R
FRONT ROYAL*   FAIR      41  18  38 W8        30.04R
LURAY*         FAIR      43  18  36 W12G22    30.05R
$$

VAZ048-049-060>072-079>083-082200-
CENTRAL AND SOUTH CENTRAL VIRGINIA

CITY           SKY/WX    TMP DP  RH WIND       PRES   REMARKS
RICHMOND       MOCLDY    48  16  27 NW16      30.05R
CHESTERFIELD*  FAIR      48  16  27 NW15      30.07R
PETERSBURG*    CLEAR     49  19  30 W15G21    30.06R
HANOVER        CLOUDY    47  19  33 W12       30.07R
TAPPAHANNOCK*  CLOUDY    50  14  24 W12       30.04R
QUINTON*       FAIR      50  20  31 W12G21    30.03R
CHARLOTTSVILLE PTCLDY    47  15  27 W8G23     30.05R
GORDONSVILLE*  FAIR      44  22  42 SW5       30.05R
ORANGE*          N/A     45  23  42 CALM      30.06R
LOUISA*        CLOUDY    46  25  42 W3        30.05R
BUMPASS*       FAIR      44  20  39 CALM      30.05R
FARMVILLE*     CLOUDY    46  21  36 W5        30.08R
CREWE*         FAIR      46  20  35 W10G20    30.08R
FORT PICKETT*  FAIR      46   7  20 NW15G24   30.08R
CHASE CITY*    FAIR      45  18  34 W9G18     30.10R
CLARKSVILLE*   FAIR      45  21  39 NW8G17    30.10R
SOUTH HILL*    PTCLDY    46  20  35 NW12G21   30.14R
LAWRENCEVILLE* FAIR      47  22  36 W7        30.06R
EMPORIA*       CLOUDY    46  28  49 W6        30.09R
$$

VAZ088>098-082200-
SOUTHEAST VIRGINIA

CITY           SKY/WX    TMP DP  RH WIND       PRES   REMARKS
NORFOLK        PTCLDY    48  41  76 N6        30.02R
VIRGINIA BEACH MOCLDY    46  40  79 N13       30.02R
NORFOLK NAVAL  MOCLDY    48  40  73 NW5       30.04R
WEST POINT*    CLEAR     48  35  60 CALM      30.04R
SALUDA*        FAIR      45  40  81 CALM      30.02S
NEWPORT NEWS   CLOUDY    47  41  80 E3        30.02R
LANGLEY AFB    NOT AVBL
FORT EUSTIS    NOT AVBL
WILLIAMSBURG*  PTCLDY    54  34  47 W6        30.03S
HR EXEC AP*    FAIR      48  36  61 NW3       30.02R
FRANKLIN*      CLOUDY    48  32  54 W8        30.06R
US460-WAKEFLD  CLOUDY    48  33  56 W5        30.04R
$$

VAZ020-022-025-037-045-082200-
WEST CENTRAL AND SOUTHWEST VIRGINIA

CITY           SKY/WX    TMP DP  RH WIND       PRES   REMARKS
STAUNTON*      CLEAR     41  13  32 W10       30.08R
WAYNESBORO*    FAIR      41   8  25 W8G21     30.05R
HOT SPRINGS VA CLEAR     28   1  31 W18G33    29.96R WCI  16
LYNCHBURG      CLOUDY    42  22  44 CALM      30.10R
DANVILLE       MOCLDY    46  21  37 W10       30.13R
SOUTH BOSTON*  FAIR      46  18  33 W8        30.11S
MARTINSVILLE   CLOUDY    44  15  31 NW13      30.15R
ROANOKE        MOCLDY    44  12  27 W15G22    30.12R
BLACKSBURG     CLEAR     38  13  36 W9G20     30.13R
DUBLIN*        CLOUDY    39  12  32 W17G23    30.12R
MARION*        SUNNY     37   8  30 W25G32    30.14R WCI  25
HILLSVILLE*    SUNNY     37   9  32 W17G23    30.07R
RICHLANDS*     FAIR      32  16  50 NW10G20   30.15R WCI  24
WISE*          PTSUNNY   34  18  51 W10       30.19R
ABINGDON*      SUNNY     40   6  24 NW14G24   30.18R
$$

MDZ021>025-VAZ099-100-082200-
SOUTHERN MARYLAND AND THE DELMARVA PENINSULA

CITY           SKY/WX    TMP DP  RH WIND       PRES   REMARKS
PATUXENT RIVER MOCLDY    47  23  38 NW16      30.02R
BAY BRIDGE APT MOCLDY    46  23  39 W10       30.01R
LEONARDTOWN    NOT AVBL
DOVER          NOT AVBL
GEORGETOWN     CLOUDY    45  30  55 W7        30.00R
EASTON         CLOUDY    46  21  36 NW9       30.04R
CAMBRIDGE      CLOUDY    45  32  61 W6        30.01R
SALISBURY      CLOUDY    44  38  79 W7        30.01R
OCEAN CITY     CLOUDY    43  36  76 W6        30.00R
WALLOPS ISLAND CLOUDY    42  38  85 CALM      30.02R
ACCOMACK*      CLOUDY    44  41  90 CALM      30.02R
$$

NCZ012>017-030>032-082200-
NORTH CENTRAL AND EASTERN NORTH CAROLINA

CITY           SKY/WX    TMP DP  RH WIND       PRES   REMARKS
ROANOKE RAPIDS FAIR      48  27  43 NW8G16    30.08R
RALEIGH        MOCLDY    49  19  30 NW6       30.11R
ELIZABETH CITY CLOUDY    50  37  61 NW10      30.03R
AHOSKIE*       CLOUDY    48  29  48 CALM      30.06R
EDENTON*       CLOUDY    52  39  61 NW6       30.04S
CURRITUCK*     CLOUDY    50  40  68 NW9       30.03R
KILL DEVIL HLS NOT AVBL
MANTEO         CLOUDY    51  43  74 NW10G17   30.02R
CAPE HATTERAS  NOT AVBL
TARBORO*       NOT AVBL
GOLDSBORO      CLOUDY    51  26  36 NW10      30.07R
WASHINGTON     CLOUDY    50  31  48 W10       30.07R
GREENVILLE     CLOUDY    50  28  43 NW5       30.08S
NEW BERN       MOCLDY    52  31  44 NW9       30.07R
WILMINGTON     CLOUDY    55  46  71 NW12      30.07R
$$

VAZ048-082200-
ELSEWHERE

CITY           SKY/WX    TMP DP  RH WIND       PRES   REMARKS
HARRISBURG PA  PTCLDY    40  18  41 NW23G29   30.00R
BALTIMORE      MOCLDY    45  17  32 W15G23    30.00R
ANNAPOLIS      MOCLDY    48  19  31 W8G20     30.01R
ANDREWS AFB    NOT AVBL
PHILADELPHIA   MOCLDY    45  18  34 W14       29.97R
HENDERSON NC   MOCLDY    44  17  33 NW10G23   30.10R
GREENSBORO     PTSUNNY   46  20  35 NW13      30.13R
ROCKY MOUNT    CLOUDY    50  27  40 W13       30.10R
$$

VAZ100-082200-
MARINE

STATION/POSITION TIME  TEMP    WIND        PRES    WAVE   SWELL
                       AIR SEA DIR/SP/G            HT/PER HT/PER
                 (UTC) (F)     (DEG/KT/KT) (MB)    (FT/S) (FT/S)
BRANDYWINE LGT   2048   45     290/ 22/ 26   N/A
CAPE MAY NJ      2048   45 48  280/ 20/ 24 1014.8R
LEWES DE         2048   45 48  280/  9/ 11 1015.5R
OCEAN-CITY-INLET 2036   44 50  280/  5/  6 1016.1R
WACHAPREAGUE VA  2048   44 49  280/  2/  4 1016.4R
THOMAS POINT MD  2100   46 47  290/ 14/ 17   N/A
GOOSES REEF MD   2050   47     290/ 12/ 16 1017.2R
COVE POINT MD    2048   46     320/ 10/ 15 1017.0R
SOLOMONS ISLAND  2036   48 51  290/ 11/ 13   N/A
BISHOPS HEAD MD  2048   45 47  240/  6/  9 1016.6R
PINEY POINT MD   2048          340/ 22/ 24   N/A
POTOMAC MD       2050   47     280/  6/ 10 1015.6R
CAMBRIDGE MD     2048   47 47  280/ 11/ 14 1015.6R
LEWISETTA VA     2048   46 48  350/  2/  3 1016.2R
RAPPAHANNOCK LGT 2048          320/  8/  8 1017.1R
STINGRAY PT      2050   45     340/  4/  6 1016.8R
YORK RVR RNG VA  2048   47      10/  7/  8 1016.2R
YORKTOWN VA      2048   49 51  330/  7/  8 1016.2R
JAMESTOWN VA     2050   51     280/ 10/ 14   N/A
DOMINION TERM VA 2048   49     320/ 11/ 13 1016.5R
KIPTOPEKE VA     2048      51  350/ 11/ 13   N/A
CHES BAY BRIDGE  2048   47 52  330/ 11/ 13 1016.6R
CAPE HENRY VA    2048   47     320/ 12/ 15   N/A
WILLOUBY STN VA  2048   48     360/  6/  7 1017.5R
S CRANEY ISL VA  2048   49     330/  5/  9 1016.5R
CAPE HENRY BUOY  2042      54                N/A     3/ 8
CAPE CHARLES BUO 2056      54                N/A     3/11   2/11
OFFSHORE WE BUOY 2051      56                N/A     4/ 8   2/11
64NM E OF VA BCH 2050   51 59  310/ 21/ 25 1014.2R   4/11   3/11
DUCK PIER NC     2048   51 54  300/ 15/ 18 1015.8R
44100 DUCK FRF   2035      56                N/A     4/11   2/11
OREGON INLET NC  2036   52 56  290/ 14/ 18 1015.8R
HATTERAS NC      2048   55 60  300/ 17/ 20 1015.9R
DIAMOND SHLS NC  2050   58 77  310/ 21/ 25 1015.5R   5/10   3/10
CAPE LOOKOUT NC  2000   56     300/ 14/ 15 1016.5R
$$




USA.gov is the U.S. government's official web portal to all federal, state and local government web resources and services.